Regional Weather Roundup
Issued by NWS

Home | Current Version | Previous Version | Graphics & Text | Print | Product List | Glossary On
Versions: 1 2 3 4 5 6 7 8 9 10 11 12 13 14 15 16 17 18 19 20 21 22 23 24 25 26 27 28 29 30 31 32 33 34 35 36 37 38 39 40 41 42 43 44 45 46 47 48 49 50
000
ASUS45 KCYS 262310
RWRWY

WYOMING REGIONAL WEATHER ROUNDUP
NATIONAL WEATHER SERVICE CHEYENNE WY
400 PM MST MON JAN 26 2015

NOTE:  "FAIR" INDICATES FEW OR NO CLOUDS BELOW 12,000 FEET
WITH NO SIGNIFICANT WEATHER AND/OR OBSTRUCTIONS TO VISIBILITY.

WYZ001-270000-
YELLOWSTONE NATIONAL PARK

CITY           SKY/WX    TMP DP  RH WIND       PRES   REMARKS
LK YELLOWSTONE   N/A     35  23  61 CALM      30.34F
W YELLOWSTONE  NOT AVBL

$$
WYZ002>013-054>058-071-098>099-270000-
NORTHERN WYOMING

CITY           SKY/WX    TMP DP  RH WIND       PRES   REMARKS
JACKSON        FOG       25  25 100 SE5       30.34S VSB 1/4 WCI  19
CODY           FAIR      43  34  70 CALM      30.14F
GREYBULL       FAIR      38  29  70 NW6       30.15F WCI  33
WORLAND        FAIR      35  28  75 SW5       30.15F WCI  31
SHERIDAN       FAIR      61  35  37 S5        30.04F
BUFFALO          N/A     64  28  25 SE6       30.10S
GILLETTE       FAIR      59  35  40 SW9       30.07F
HULETT           N/A    N/A N/A N/A MISG        N/A
NEWCASTLE      FAIR      59  30  33 W3        30.10S

$$
WYZ014>020-022>026-101>103-270000-
CENTRAL WYOMING

CITY           SKY/WX    TMP DP  RH WIND       PRES   REMARKS
BIG PINEY      FAIR      43  26  51 E6        30.34S
PINEDALE       FAIR      36  27  69 NW5       30.35S WCI  32
DUBOIS         FAIR      55  23  28 W8        30.24F
LANDER         FAIR      42  29  59 N7        30.20S
RIVERTON       FAIR      44  28  53 NE6       30.22F
CASPER         FAIR      52  28  39 SW22      30.19F
DOUGLAS        FAIR      63  25  23 NW10      30.15F

$$
WYZ021-027>030-104>119-270000-
SOUTHERN WYOMING

CITY           SKY/WX    TMP DP  RH WIND       PRES   REMARKS
EVANSTON       FAIR      48  31  51 E3        30.30F
KEMMERER       FAIR      48  25  40 CALM      30.32F
FORT BRIDGER   FAIR      50  33  51 N3        30.34S
ROCK SPRINGS   FAIR      52  28  39 NE5       30.30F
DIXON          FAIR      47  31  53 CALM      30.36F
RAWLINS        FAIR      50  26  39 SW9       30.32F
SARATOGA       FAIR      54  25  32 E3        30.34S
LARAMIE        FAIR      49  27  42 NE12      30.29S
CHEYENNE       FAIR      65  20  17 W10       30.22R
TORRINGTON     FAIR      65  28  24 W13       30.11F
PINE BLUFFS    FAIR      63  27  25 N13       30.18S

$$



USA.gov is the U.S. government's official web portal to all federal, state and local government web resources and services.